When you browse on this site, cookies collect data to enhance your experience and personalize the content and advertising you see.
Visit our Privacy Policy to learn more. By continuing to use the site, you agree to this use of cookies and data.
  • In Hungary
  • List of Countries
  • For 7 days
  • Water Temperature
  • Weather Map
  • News
  • Weather Widgets
  • user-avatar
    Login

    Hourly Weather Kumakskoe

    Today, 7 June, Sunday

    Time Temperature Precipitation Wind Pressure Humidity
    00:00 +17°C° 0 mm 2 mps 741 mmHg 58%
    01:00 +16°C° 0 mm 2 mps 741 mmHg 58%
    02:00 +16°C° 0 mm 2 mps 741 mmHg 58%
    03:00 +16°C° 0 mm 3 mps 741 mmHg 58%
    04:00 +16°C° 0 mm 3 mps 741 mmHg 64%
    05:00 +17°C° 0 mm 3 mps 741 mmHg 60%
    06:00 +18°C° 0 mm 3 mps 741 mmHg 55%
    07:00 +20°C° 0 mm 3 mps 742 mmHg 50%
    08:00 +21°C° 0 mm 4 mps 742 mmHg 43%
    09:00 +23°C° 0 mm 4 mps 742 mmHg 37%
    10:00 +25°C° 0 mm 4 mps 742 mmHg 30%
    11:00 +26°C° 0 mm 4 mps 741 mmHg 28%
    12:00 +26°C° 0 mm 4 mps 741 mmHg 26%
    13:00 +27°C° 0 mm 4 mps 741 mmHg 24%
    14:00 +27°C° 0 mm 3 mps 741 mmHg 24%
    15:00 +27°C° 0 mm 3 mps 741 mmHg 23%
    16:00 +27°C° 0 mm 3 mps 741 mmHg 22%
    17:00 +27°C° 0 mm 3 mps 741 mmHg 26%
    18:00 +26°C° 0 mm 2 mps 740 mmHg 30%
    19:00 +25°C° 0 mm 2 mps 740 mmHg 33%
    20:00 +23°C° 0 mm 2 mps 740 mmHg 35%
    21:00 +21°C° 0 mm 2 mps 740 mmHg 36%
    22:00 +19°C° 0 mm 2 mps 740 mmHg 37%
    23:00 +19°C° 0 mm 3 mps 740 mmHg 40%

    Tomorrow, 8 June, Monday

    Time Temperature Precipitation Wind Pressure Humidity
    00:00 +18°C° 0 mm 3 mps 740 mmHg 43%
    01:00 +18°C° 0 mm 3 mps 740 mmHg 45%
    02:00 +18°C° 0 mm 3 mps 740 mmHg 46%
    03:00 +17°C° 0 mm 3 mps 740 mmHg 46%
    04:00 +17°C° 0 mm 3 mps 740 mmHg 47%
    05:00 +19°C° 0 mm 3 mps 740 mmHg 44%
    06:00 +20°C° 0 mm 3 mps 740 mmHg 41%
    07:00 +22°C° 0 mm 4 mps 740 mmHg 38%
    08:00 +23°C° 0 mm 4 mps 741 mmHg 34%
    09:00 +26°C° 0 mm 5 mps 741 mmHg 30%
    10:00 +27°C° 0 mm 5 mps 741 mmHg 26%
    11:00 +27°C° 0 mm 5 mps 741 mmHg 27%
    12:00 +27°C° 0 mm 5 mps 741 mmHg 27%
    13:00 +27°C° 0 mm 5 mps 741 mmHg 27%
    14:00 +27°C° 0 mm 5 mps 741 mmHg 27%
    15:00 +27°C° 0 mm 5 mps 741 mmHg 28%
    16:00 +28°C° 0 mm 5 mps 741 mmHg 28%
    17:00 +27°C° 0 mm 4 mps 741 mmHg 31%
    18:00 +26°C° 0 mm 3 mps 741 mmHg 35%
    19:00 +25°C° 0 mm 2 mps 741 mmHg 38%
    20:00 +24°C° 0 mm 3 mps 741 mmHg 40%
    21:00 +22°C° 0 mm 3 mps 741 mmHg 41%
    22:00 +20°C° 0 mm 3 mps 741 mmHg 42%
    23:00 +20°C° 0 mm 3 mps 741 mmHg 43%

    Day after tomorrow, 9 June, Tuesday

    Time Temperature Precipitation Wind Pressure Humidity
    00:00 +19°C° 0 mm 3 mps 741 mmHg 44%
    01:00 +19°C° 0 mm 3 mps 741 mmHg 44%
    02:00 +19°C° 0 mm 3 mps 741 mmHg 45%
    03:00 +19°C° 0 mm 3 mps 742 mmHg 46%
    04:00 +19°C° 0 mm 3 mps 742 mmHg 47%
    05:00 +20°C° 0 mm 3 mps 742 mmHg 47%
    06:00 +21°C° 0 mm 3 mps 742 mmHg 46%
    07:00 +24°C° 0 mm 3 mps 743 mmHg 46%
    08:00 +25°C° 0 mm 4 mps 743 mmHg 41%
    09:00 +26°C° 0 mm 5 mps 743 mmHg 36%
    10:00 +28°C° 0 mm 5 mps 743 mmHg 32%
    11:00 +28°C° 0 mm 5 mps 743 mmHg 30%
    12:00 +28°C° 0 mm 4 mps 743 mmHg 28%
    13:00 +29°C° 0 mm 4 mps 743 mmHg 27%
    14:00 +29°C° 0 mm 4 mps 743 mmHg 26%
    15:00 +29°C° 0 mm 4 mps 743 mmHg 26%
    16:00 +29°C° 0 mm 4 mps 743 mmHg 26%
    17:00 +28°C° 0 mm 4 mps 743 mmHg 30%
    18:00 +27°C° 0 mm 4 mps 743 mmHg 34%
    19:00 +26°C° 0 mm 4 mps 743 mmHg 38%
    20:00 +25°C° 0 mm 3 mps 743 mmHg 42%
    21:00 +22°C° 0 mm 3 mps 743 mmHg 46%
    22:00 +21°C° 0 mm 3 mps 743 mmHg 50%
    23:00 +20°C° 0 mm 3 mps 743 mmHg 51%

    10 June, Wednesday

    Time Temperature Precipitation Wind Pressure Humidity
    00:00 +20°C° 0 mm 3 mps 743 mmHg 53%
    01:00 +20°C° 0 mm 3 mps 743 mmHg 55%
    02:00 +19°C° 0 mm 3 mps 743 mmHg 57%
    03:00 +19°C° 0 mm 3 mps 743 mmHg 59%
    04:00 +19°C° 0 mm 3 mps 743 mmHg 60%
    05:00 +20°C° 0 mm 3 mps 743 mmHg 58%
    06:00 +22°C° 0 mm 3 mps 744 mmHg 55%
    07:00 +23°C° 0 mm 4 mps 744 mmHg 52%
    08:00 +26°C° 0 mm 4 mps 744 mmHg 47%
    09:00 +27°C° 0 mm 5 mps 744 mmHg 41%
    10:00 +29°C° 0 mm 5 mps 744 mmHg 35%
    11:00 +30°C° 0 mm 5 mps 744 mmHg 34%
    12:00 +30°C° 0 mm 5 mps 744 mmHg 32%
    13:00 +32°C° 0 mm 5 mps 744 mmHg 31%
    14:00 +32°C° 0 mm 5 mps 744 mmHg 29%
    15:00 +32°C° 0 mm 4 mps 743 mmHg 28%
    16:00 +32°C° 0 mm 4 mps 743 mmHg 27%
    17:00 +30°C° 0 mm 4 mps 743 mmHg 30%
    18:00 +29°C° 0 mm 3 mps 743 mmHg 33%
    19:00 +28°C° 0 mm 3 mps 743 mmHg 36%
    20:00 +26°C° 0 mm 3 mps 743 mmHg 38%
    21:00 +25°C° 0 mm 3 mps 743 mmHg 40%
    22:00 +22°C° 0 mm 3 mps 743 mmHg 43%
    23:00 +21°C° 0 mm 3 mps 743 mmHg 43%

    11 June, Thursday

    Time Temperature Precipitation Wind Pressure Humidity
    00:00 +21°C° 0 mm 3 mps 743 mmHg 44%
    01:00 +20°C° 0 mm 2 mps 743 mmHg 45%
    02:00 +19°C° 0 mm 2 mps 743 mmHg 46%
    03:00 +18°C° 0 mm 2 mps 743 mmHg 48%
    04:00 +19°C° 0 mm 1 mps 743 mmHg 49%
    05:00 +21°C° 0 mm 1 mps 743 mmHg 44%
    06:00 +23°C° 0 mm 1 mps 743 mmHg 38%
    07:00 +25°C° 0 mm 1 mps 743 mmHg 33%
    08:00 +26°C° 0 mm 1 mps 743 mmHg 30%
    09:00 +28°C° 0 mm 1 mps 743 mmHg 27%
    10:00 +29°C° 0 mm 1 mps 743 mmHg 24%
    11:00 +30°C° 0 mm 1 mps 743 mmHg 23%
    12:00 +30°C° 0 mm 1 mps 742 mmHg 21%
    13:00 +31°C° 0 mm 1 mps 742 mmHg 20%
    14:00 +31°C° 0 mm 1 mps 742 mmHg 19%
    15:00 +31°C° 0 mm 1 mps 741 mmHg 19%
    16:00 +32°C° 0 mm 1 mps 741 mmHg 18%
    17:00 +31°C° 0 mm 1 mps 741 mmHg 23%
    18:00 +30°C° 0 mm 1 mps 740 mmHg 27%
    19:00 +29°C° 0 mm 1 mps 740 mmHg 32%
    20:00 +27°C° 0 mm 1 mps 740 mmHg 33%
    21:00 +25°C° 0 mm 2 mps 740 mmHg 34%
    22:00 +24°C° 0 mm 2 mps 740 mmHg 35%
    23:00 +23°C° 0 mm 2 mps 739 mmHg 37%

    12 June, Friday

    Time Temperature Precipitation Wind Pressure Humidity
    00:00 +21°C° 0 mm 2 mps 739 mmHg 40%
    01:00 +21°C° 0 mm 2 mps 739 mmHg 43%
    02:00 +21°C° 0 mm 1 mps 739 mmHg 46%
    03:00 +20°C° 0 mm 1 mps 738 mmHg 48%
    04:00 +20°C° 0 mm 1 mps 738 mmHg 51%
    05:00 +22°C° 0 mm 1 mps 738 mmHg 45%
    06:00 +24°C° 0 mm 1 mps 738 mmHg 40%
    07:00 +27°C° 0 mm 1 mps 739 mmHg 34%
    08:00 +28°C° 0 mm 1 mps 738 mmHg 31%
    09:00 +29°C° 0 mm 1 mps 738 mmHg 28%
    10:00 +31°C° 0 mm 1 mps 738 mmHg 24%
    11:00 +31°C° 0 mm 1 mps 738 mmHg 23%
    12:00 +32°C° 0 mm 1 mps 738 mmHg 22%
    13:00 +32°C° 0 mm 1 mps 737 mmHg 21%
    14:00 +32°C° 0 mm 1 mps 737 mmHg 21%
    15:00 +33°C° 0 mm 1 mps 736 mmHg 20%
    16:00 +34°C° 0 mm 2 mps 736 mmHg 20%
    17:00 +32°C° 0 mm 2 mps 736 mmHg 24%
    18:00 +31°C° 0 mm 1 mps 735 mmHg 28%
    19:00 +30°C° 0 mm 1 mps 735 mmHg 32%
    20:00 +28°C° 0 mm 1 mps 735 mmHg 34%
    21:00 +26°C° 0 mm 1 mps 734 mmHg 36%
    22:00 +24°C° 0 mm 1 mps 734 mmHg 38%
    23:00 +24°C° 0 mm 2 mps 734 mmHg 39%
    Show more